Wetbulb
62.78 62.27 61.32 60.26 51.07 50.20 45.92 47.72 51.84 50.56 51.21 59.91 59.62 57.94 57.37 64.09 62.93 58.14 69.93 70.65 71.47 70.11 70.76 71.21 71.58 72.21 72.34 72.36 72.40 72.69 72.62 72.49 72.61 72.63 72.36 72.20 72.33 72.85 72.99 72.80 72.47 72.33 72.04 71.79 71.27 70.45 69.79 70.18 69.86
60.87 62.16 60.86 56.28 49.40 45.71 46.79 51.49 49.68 51.14 60.72 62.27 60.44 59.43 58.14 62.85 67.73 67.06 67.20 71.68 71.56 70.45 70.62 70.61 71.26 71.68 72.16 72.21 72.27 72.48 72.43 72.38 72.24 72.33 72.13 71.86 71.68 71.84 72.12 72.09 72.30 72.34 71.82 71.27 71.08 70.31 69.17 68.72 68.36
61.28 61.52 55.06 52.17 49.90 46.17 47.30 51.51 52.20 55.18 58.80 59.73 59.17 62.91 61.80 64.27 67.83 68.31 70.65 71.76 71.40 70.67 70.66 71.06 71.05 71.33 71.73 71.80 71.91 72.15 72.16 72.17 72.04 71.80 71.90 71.54 71.73 71.49 71.33 71.19 71.05 71.10 70.05 69.65 69.54 68.55 67.31 65.50 64.89
60.29 59.07 55.83 48.89 46.46 50.12 50.41 52.35 53.89 54.81 57.42 60.70 59.89 59.93 66.78 69.99 68.76 70.82 71.26 71.75 70.94 70.50 71.27 69.88 70.17 70.74 71.45 71.47 71.53 72.01 71.97 71.60 71.17 71.42 71.63 71.61 70.71 70.43 69.51 69.32 69.42 68.79 68.46 67.78 66.91 65.52 64.15 62.89 62.20
60.21 55.62 49.10 47.34 47.91 50.85 53.34 53.98 53.99 52.50 53.75 56.98 60.21 59.45 63.87 69.21 71.38 71.37 71.27 71.44 70.65 70.57 71.21 70.64 69.63 70.53 71.15 71.61 71.59 71.26 70.54 70.36 70.52 71.19 71.11 70.60 69.57 68.40 67.69 67.30 67.00 66.48 65.98 65.14 64.18 63.03 61.98 61.02 60.31
53.55 54.89 47.62 45.51 47.54 51.25 53.50 54.88 53.73 52.82 54.71 55.60 58.34 60.02 64.32 69.94 69.94 70.66 71.79 71.13 71.65 71.18 70.63 70.25 70.16 70.28 70.58 70.89 70.62 69.86 69.82 70.05 69.97 69.60 69.23 68.56 67.52 66.66 65.78 65.07 64.43 63.96 63.24 62.70 61.94 61.00 59.96 59.18 58.54
52.93 50.51 47.39 48.36 48.86 50.11 52.60 55.88 53.19 53.72 55.95 56.65 60.66 59.83 65.38 67.54 70.24 70.80 71.22 71.92 72.57 71.34 70.28 69.82 70.08 70.40 69.32 68.88 68.75 68.44 68.79 68.45 68.13 67.81 67.25 66.66 65.79 65.21 64.10 63.22 62.40 61.63 61.10 60.50 59.78 58.67 57.92 57.29 56.51
55.36 52.36 48.12 48.41 47.35 47.86 52.95 54.36 55.38 55.87 55.83 65.49 64.39 59.60 62.71 67.58 70.48 70.68 70.98 70.83 71.14 70.19 70.05 69.73 69.70 69.59 69.08 68.30 67.32 67.35 67.23 66.65 66.44 65.97 65.33 64.58 64.07 63.53 62.39 61.50 60.73 60.09 59.05 58.59 58.13 56.99 56.25 55.67 55.35
57.22 49.63 46.73 47.48 48.39 50.14 54.02 53.18 55.52 58.43 56.71 60.40 64.65 64.59 68.13 69.14 70.12 69.49 68.63 68.38 68.88 69.40 69.13 69.99 69.16 68.64 68.11 66.87 66.76 66.50 66.38 65.74 65.05 64.67 64.03 62.41 61.48 61.04 60.79 59.66 59.06 58.36 57.57 56.82 56.18 55.65 55.49 55.66 56.60
53.79 49.57 49.01 52.11 52.44 51.62 53.32 53.69 53.71 53.72 54.97 55.62 58.50 66.75 69.00 68.52 68.35 67.25 66.33 66.11 66.88 67.12 68.35 69.09 68.59 67.94 66.72 66.46 65.27 65.11 64.88 64.19 64.05 63.25 61.76 62.65 62.11 60.96 58.46 57.39 57.28 56.72 55.92 55.04 54.72 54.84 55.73 55.75 51.69
53.96 50.26 52.97 53.46 54.52 53.96 52.34 52.37 53.99 52.69 51.74 54.29 55.18 61.55 67.31 67.07 67.26 66.97 66.80 66.59 66.30 67.06 67.49 68.45 67.91 67.33 65.73 64.87 64.87 64.84 64.43 64.19 63.61 62.84 62.00 63.25 58.35 56.26 55.06 53.31 52.64 52.75 54.27 52.20 52.63 52.43 52.65 53.09 52.83
52.32 54.29 54.03 54.21 54.74 53.50 52.44 54.00 52.64 53.21 53.44 56.22 57.21 61.15 66.76 66.51 66.57 66.76 66.71 65.66 65.56 65.38 65.85 66.91 67.02 66.59 66.31 65.56 65.38 65.33 64.98 64.46 62.98 62.10 63.73 60.54 58.05 56.23 54.13 54.19 54.12 54.27 53.14 52.92 52.74 51.98 52.34 51.22 52.23
52.77 53.72 54.49 54.95 54.51 54.21 54.23 52.35 52.37 52.89 55.29 56.78 56.95 59.21 66.40 66.22 66.27 66.82 67.71 66.52 65.69 64.25 64.96 65.42 66.38 65.61 66.42 65.45 65.70 65.74 65.10 64.65 63.67 63.02 61.80 58.97 57.56 56.44 55.73 55.18 53.43 52.83 52.82 52.19 51.67 50.97 50.85 50.55 51.61
54.45 53.80 53.32 54.07 54.04 54.35 52.26 52.26 52.65 53.51 55.69 55.82 56.10 56.10 61.31 66.03 66.07 66.56 66.55 65.59 65.18 64.70 64.16 65.31 65.63 65.63 66.12 65.54 65.21 65.39 65.13 64.05 63.18 61.02 59.43 58.98 57.90 57.07 55.57 53.82 52.63 51.92 52.49 51.99 51.56 50.24 50.10 50.34 51.28
54.25 50.91 52.82 53.51 54.03 52.87 53.90 50.09 50.48 54.09 55.04 54.52 55.30 56.09 56.34 60.78 66.53 65.61 66.60 66.44 66.18 64.99 64.19 64.25 64.82 65.19 64.78 64.73 65.05 63.98 63.36 62.54 60.12 58.77 58.75 58.64 57.72 56.14 54.25 53.41 52.07 51.63 52.49 51.63 50.69 49.53 50.11 49.60 51.20
49.98 50.39 46.25 51.71 53.15 54.10 53.40 46.91 52.54 55.04 54.64 54.13 55.12 55.67 56.05 58.71 61.03 65.55 67.34 67.20 67.50 65.27 63.78 63.73 64.74 64.54 64.10 63.97 63.72 62.56 61.38 59.71 58.27 57.41 57.07 57.06 56.92 55.73 54.21 52.71 52.14 51.74 51.33 51.31 50.81 49.81 48.98 48.86 49.03
48.88 44.28 45.92 48.10 53.03 52.63 51.99 49.06 52.82 55.15 54.53 54.57 55.31 56.06 55.88 56.89 60.39 63.45 66.53 67.87 67.54 66.79 64.55 62.69 64.10 63.26 63.00 63.31 61.76 60.97 59.58 58.27 57.15 56.24 55.81 55.93 55.62 55.38 53.28 52.30 52.15 51.84 51.01 50.45 50.16 49.59 49.11 47.81 48.01
44.66 46.03 47.91 47.60 51.50 52.27 50.94 50.51 53.13 54.40 54.39 54.35 55.01 55.79 56.41 56.91 57.91 62.56 64.96 67.47 67.73 67.13 65.73 64.08 63.72 62.08 61.67 60.95 59.67 58.68 56.90 56.76 55.96 55.12 54.62 54.89 53.91 54.33 53.26 52.18 51.00 51.23 50.10 49.63 48.74 48.06 48.68 48.22 47.71
49.77 48.28 47.27 49.84 52.69 51.23 50.72 50.79 52.07 54.28 54.35 54.04 54.76 55.26 56.21 57.02 59.06 62.02 64.16 67.10 67.08 66.91 64.81 64.04 62.27 60.94 60.26 58.24 56.14 54.54 53.34 54.32 53.99 54.06 54.08 53.78 52.91 52.85 52.55 50.46 50.48 50.68 49.20 48.75 49.70 48.01 46.23 45.59 47.14
49.47 47.42 47.21 50.35 52.07 51.54 50.53 49.97 52.86 53.97 54.18 54.51 54.62 54.78 55.69 56.95 57.99 59.46 63.55 66.14 65.79 65.99 63.81 63.19 62.02 60.75 59.49 58.02 56.20 55.08 54.36 53.94 53.61 53.21 52.94 52.83 52.38 52.26 51.57 49.86 49.45 49.72 49.65 48.97 48.76 47.38 45.82 44.83 47.29
48.51 46.96 47.39 46.92 50.25 51.57 49.81 47.80 50.17 53.37 54.55 54.83 55.48 56.06 56.35 56.40 56.97 58.28 61.82 64.63 65.03 64.96 64.06 63.12 62.27 60.69 59.47 58.25 56.74 55.44 54.64 53.26 51.85 51.57 51.09 51.57 51.47 51.36 50.41 50.35 49.36 49.47 48.61 47.29 47.49 47.54 45.32 42.25 43.46
44.72 50.27 49.13 47.78 46.21 42.13 49.55 39.94 47.55 50.77 51.94 53.64 54.51 55.73 55.40 56.59 57.36 58.03 59.18 63.18 64.98 64.80 64.63 63.48 62.30 60.09 59.26 58.41 56.51 54.50 52.11 49.82 50.47 50.53 50.78 50.63 50.80 50.41 51.09 49.91 49.43 48.54 48.00 47.46 47.16 47.86 46.52 45.12 41.58
45.81 49.98 47.99 47.34 45.09 44.33 44.46 40.61 44.90 49.56 48.99 51.51 54.04 52.86 53.01 53.25 53.52 54.10 55.88 62.58 64.23 64.57 64.57 62.82 61.52 60.06 59.18 58.29 57.21 55.10 52.75 51.55 51.39 50.80 50.53 49.34 49.59 49.58 49.50 49.17 48.63 47.76 47.30 46.86 45.47 44.60 43.77 44.34 43.43
50.16 47.37 46.48 46.81 44.25 35.88 42.35 41.25 42.05 45.80 48.05 50.94 50.17 50.60 51.30 51.84 52.77 53.49 55.47 58.00 63.23 63.69 63.71 62.60 60.32 59.41 58.59 57.89 56.89 54.99 53.42 52.58 50.24 49.24 49.03 48.48 48.52 48.12 48.08 48.35 47.45 47.32 46.82 44.73 44.17 43.91 42.80 42.11 42.15
46.74 43.12 35.26 34.49 34.98 34.05 44.30 41.04 43.30 47.56 49.29 48.47 47.69 48.08 49.16 49.98 50.12 50.74 52.44 54.08 56.23 61.08 62.44 61.55 59.75 57.88 57.47 56.49 54.54 53.11 53.11 52.41 50.43 50.03 49.07 48.26 47.32 46.45 46.47 46.80 46.10 46.07 44.98 44.22 43.51 42.61 41.93 41.50 40.48
43.30 42.56 35.12 30.02 32.07 35.09 41.07 37.06 41.14 47.37 47.60 48.23 48.07 47.98 48.70 48.90 49.75 49.08 50.13 51.21 53.40 55.41 59.82 61.28 59.63 57.28 56.23 54.75 53.93 53.20 52.77 52.66 51.24 50.31 49.20 48.12 47.18 46.32 46.55 46.37 46.03 45.32 43.97 43.04 42.64 41.36 40.88 40.64 40.27
41.53 38.58 42.25 35.75 37.48 32.27 36.26 40.13 45.34 45.77 43.29 45.07 44.77 45.90 46.27 47.73 48.85 49.69 50.57 50.65 51.02 52.89 54.70 58.21 59.09 58.12 56.39 54.37 53.59 52.92 51.97 51.99 50.69 50.05 49.67 48.63 47.83 47.28 46.05 45.71 45.44 44.26 43.25 42.33 41.91 40.30 39.37 39.43 39.12
41.28 42.16 35.28 36.13 29.14 26.82 34.11 36.61 35.15 35.71 37.48 40.37 41.50 42.44 44.21 46.40 47.24 47.91 50.50 51.27 51.16 51.96 52.65 54.36 55.92 56.34 57.52 54.47 53.58 53.32 51.70 51.28 50.77 49.93 48.30 47.91 46.85 46.48 45.53 44.71 44.13 42.76 41.11 40.82 40.35 38.79 38.88 37.99 37.55
37.52 36.19 36.07 34.85 32.91 27.95 26.93 31.58 38.23 37.12 37.48 37.79 39.98 42.04 42.26 43.43 45.95 46.98 47.92 52.14 51.80 51.62 51.56 51.86 52.96 54.03 54.27 55.47 54.17 52.89 51.94 51.46 50.88 48.91 48.11 47.25 46.40 45.55 44.35 44.02 42.37 40.44 39.31 39.57 38.58 36.92 37.40 36.58 35.04
40.62 37.18 36.80 29.80 27.99 30.69 28.42 29.88 41.30 40.61 41.49 40.01 39.63 41.07 42.25 43.49 45.12 46.53 47.09 48.58 51.71 50.55 50.47 50.97 51.27 51.49 52.32 53.57 54.60 52.88 52.13 51.20 49.91 48.11 47.40 46.61 45.01 44.45 43.53 42.91 40.59 39.67 38.97 38.16 36.87 35.34 35.99 34.70 33.83
MSLP
1008.20 1007.82 1007.49 1006.60 1005.60 1003.10 1000.66 998.42 996.73 995.95 996.04 996.64 996.69 997.15 997.70 999.45 1000.69 1001.94 1003.15 1003.63 1005.63 1007.34 1008.48 1009.47 1010.13 1010.73 1011.48 1011.87 1012.32 1012.70 1013.16 1013.52 1013.71 1014.08 1014.32 1014.55 1014.86 1015.09 1015.25 1015.34 1015.45 1015.60 1015.76 1015.94 1016.13 1016.25 1016.48 1016.65 1016.72
1007.46 1006.73 1006.21 1005.16 1003.86 1001.51 998.88 996.72 996.32 996.31 997.22 997.57 997.68 998.16 998.45 1000.48 1001.71 1002.47 1003.22 1004.29 1005.93 1007.43 1008.73 1009.51 1010.32 1010.79 1011.48 1011.90 1012.36 1012.75 1013.18 1013.59 1013.92 1014.16 1014.49 1014.80 1015.00 1015.30 1015.45 1015.61 1015.67 1015.77 1015.95 1016.13 1016.29 1016.48 1016.74 1016.93 1016.95
1007.78 1006.52 1005.56 1004.08 1002.51 1000.74 998.61 996.51 996.40 996.78 997.48 998.24 998.43 999.28 999.76 1001.79 1002.73 1003.34 1003.93 1004.46 1005.93 1007.64 1008.49 1009.60 1010.42 1010.90 1011.52 1011.96 1012.38 1012.79 1013.18 1013.66 1014.08 1014.29 1014.61 1015.01 1015.31 1015.47 1015.74 1015.95 1016.04 1016.10 1016.27 1016.43 1016.68 1016.93 1017.13 1017.25 1017.28
1006.54 1005.71 1005.07 1003.20 1001.46 999.73 998.38 996.78 996.67 997.23 998.00 998.75 999.16 999.59 1001.40 1002.16 1003.16 1003.68 1004.33 1005.10 1006.08 1007.44 1008.29 1009.92 1010.46 1011.00 1011.66 1012.03 1012.43 1012.88 1013.25 1013.72 1014.09 1014.54 1014.78 1015.14 1015.54 1015.82 1016.07 1016.27 1016.45 1016.53 1016.69 1016.92 1017.18 1017.38 1017.43 1017.57 1017.52
1005.64 1005.21 1003.94 1002.70 1001.34 999.92 998.29 996.92 997.03 997.50 998.20 998.56 999.34 999.94 1001.58 1002.93 1003.70 1004.40 1004.60 1005.27 1006.21 1007.23 1008.50 1009.81 1010.56 1011.05 1011.69 1012.13 1012.54 1012.85 1013.24 1013.64 1014.07 1014.61 1015.05 1015.30 1015.68 1016.14 1016.36 1016.56 1016.78 1016.92 1017.04 1017.36 1017.52 1017.66 1017.69 1017.90 1017.82
1005.10 1004.37 1003.58 1002.23 1000.75 998.97 997.79 997.29 997.57 998.08 998.70 998.73 999.23 1000.28 1002.48 1003.60 1003.89 1004.63 1004.94 1005.39 1006.24 1007.51 1008.73 1009.81 1010.60 1011.25 1011.62 1012.19 1012.59 1012.85 1013.19 1013.65 1014.08 1014.60 1015.15 1015.69 1016.05 1016.37 1016.70 1016.90 1017.10 1017.32 1017.57 1017.69 1017.99 1018.06 1018.04 1018.04 1017.96
1004.56 1004.07 1002.93 1001.72 1000.48 999.30 997.98 997.20 997.42 998.45 998.67 998.49 998.94 1000.43 1002.76 1003.75 1003.99 1004.62 1005.13 1005.94 1006.92 1008.06 1009.14 1009.89 1010.76 1011.22 1011.57 1012.14 1012.66 1013.08 1013.41 1013.90 1014.35 1014.75 1015.20 1015.99 1016.35 1016.60 1016.90 1017.19 1017.42 1017.66 1017.85 1017.99 1018.14 1018.36 1018.36 1018.35 1018.23
1003.83 1003.63 1002.65 1001.78 1000.82 999.58 998.43 998.00 998.60 998.95 999.35 999.21 999.14 1000.44 1002.24 1003.43 1004.11 1004.78 1005.75 1007.00 1007.73 1008.56 1009.40 1010.08 1010.77 1011.26 1011.71 1012.33 1012.89 1013.35 1013.75 1014.10 1014.56 1014.88 1015.58 1016.13 1016.49 1016.85 1017.16 1017.30 1017.68 1017.88 1018.01 1018.17 1018.28 1018.49 1018.53 1018.43 1018.27
1003.43 1003.10 1002.19 1001.28 1000.31 998.95 998.28 998.32 998.51 998.88 999.49 999.65 999.88 1000.70 1002.03 1003.44 1004.27 1005.31 1006.53 1007.57 1008.43 1009.06 1009.65 1010.14 1010.92 1011.38 1011.89 1012.43 1013.06 1013.61 1014.04 1014.38 1014.69 1015.19 1015.71 1016.23 1016.44 1016.72 1017.24 1017.56 1017.74 1018.00 1018.18 1018.34 1018.38 1018.47 1018.60 1018.56 1018.37
1002.44 1002.36 1001.65 1000.90 1000.06 999.38 999.08 998.78 998.85 999.10 999.22 999.49 999.86 1001.17 1002.84 1003.93 1004.45 1005.40 1006.48 1007.23 1008.14 1009.02 1009.59 1010.10 1010.80 1011.49 1011.90 1012.41 1013.04 1013.62 1014.10 1014.47 1014.67 1015.24 1015.68 1015.55 1015.94 1016.28 1017.07 1017.75 1018.14 1018.10 1018.23 1018.38 1018.44 1018.44 1018.61 1018.63 1018.60
1002.01 1001.26 1001.12 1000.60 1000.17 1000.03 1000.03 999.83 999.52 999.14 998.83 998.90 999.18 999.95 1001.67 1003.47 1004.48 1005.49 1006.38 1007.14 1007.71 1008.64 1009.42 1009.83 1010.48 1011.04 1011.68 1012.36 1012.90 1013.39 1013.87 1014.21 1014.45 1014.81 1015.20 1015.37 1015.73 1016.51 1017.18 1017.76 1017.88 1018.19 1018.27 1018.31 1018.33 1018.47 1018.44 1018.40 1018.31
1001.82 1001.09 1000.67 1000.42 1000.37 1000.17 999.85 999.81 999.52 999.29 998.89 998.76 998.78 999.30 1001.33 1002.87 1003.91 1004.54 1005.65 1006.95 1007.70 1008.46 1009.14 1009.52 1010.03 1010.62 1011.24 1011.85 1012.53 1012.92 1013.23 1013.55 1013.90 1014.35 1014.55 1014.95 1015.42 1016.08 1016.74 1017.20 1017.36 1017.46 1017.71 1017.78 1017.82 1018.26 1018.55 1018.72 1018.73
1001.85 1001.29 1000.76 1000.58 1000.44 1000.04 999.77 999.48 999.43 999.01 998.90 998.90 998.92 999.23 1000.61 1002.04 1003.05 1004.26 1005.04 1006.40 1007.39 1008.27 1008.80 1009.32 1009.78 1010.20 1010.73 1011.24 1011.78 1012.17 1012.54 1012.80 1013.26 1013.79 1014.20 1014.71 1015.36 1015.75 1015.78 1016.18 1016.66 1016.89 1017.24 1017.53 1017.88 1018.38 1018.54 1018.77 1018.92
1002.60 1001.92 1001.23 1000.85 1000.36 1000.00 999.62 999.07 998.97 998.74 998.64 998.77 998.83 998.93 999.58 1000.74 1002.03 1003.38 1004.40 1005.53 1006.62 1007.59 1008.26 1008.84 1009.33 1009.83 1010.24 1010.71 1011.18 1011.55 1011.79 1012.32 1012.90 1013.60 1014.08 1014.58 1014.89 1015.37 1015.63 1015.98 1016.39 1016.71 1017.06 1017.38 1017.76 1018.25 1018.38 1018.68 1019.09
1002.65 1001.80 1000.93 1000.43 1000.06 999.57 999.23 998.12 997.66 997.66 997.52 997.54 997.77 997.90 998.32 999.10 1000.44 1001.76 1003.02 1004.12 1005.31 1006.57 1007.72 1008.40 1008.92 1009.57 1009.94 1010.21 1010.62 1011.04 1011.50 1012.13 1012.81 1013.42 1013.99 1014.29 1014.64 1015.20 1015.66 1016.04 1016.38 1016.72 1017.01 1017.41 1017.86 1018.08 1018.40 1018.82 1018.94
1003.26 1002.46 1000.87 1000.05 999.56 998.73 998.28 996.58 996.70 996.31 996.03 996.03 996.22 996.76 997.15 997.72 998.63 999.87 1001.33 1002.48 1003.99 1005.60 1006.72 1007.96 1008.45 1008.89 1009.43 1009.87 1010.30 1010.78 1011.16 1011.86 1012.63 1013.21 1013.74 1014.17 1014.54 1015.04 1015.45 1016.04 1016.32 1016.57 1017.24 1017.58 1017.93 1018.26 1018.43 1018.76 1019.11
1002.71 1001.27 1000.59 999.40 998.71 997.69 996.98 995.54 995.53 995.59 995.73 995.67 995.60 995.76 996.19 996.56 997.23 998.31 999.68 1001.27 1002.97 1004.25 1005.66 1007.10 1007.73 1008.29 1008.93 1009.64 1010.17 1010.64 1011.13 1011.76 1012.30 1013.04 1013.62 1014.13 1014.53 1014.88 1015.30 1015.79 1016.18 1016.54 1017.07 1017.31 1017.64 1017.92 1018.23 1018.63 1018.97
1001.08 1000.09 999.03 998.12 997.68 996.59 995.92 995.51 995.18 994.82 995.46 995.29 995.60 995.96 995.99 995.96 996.12 997.00 998.27 999.81 1001.71 1003.05 1004.70 1006.04 1006.94 1007.83 1008.70 1009.25 1010.05 1010.56 1011.09 1011.56 1012.00 1012.72 1013.30 1014.01 1014.48 1014.80 1015.10 1015.54 1016.20 1016.48 1016.94 1017.30 1017.52 1017.80 1018.09 1018.54 1018.81
1000.98 1000.11 998.93 998.21 997.78 996.94 996.11 995.32 995.07 994.85 994.57 994.87 995.16 995.43 995.59 995.65 995.67 995.90 997.05 998.59 1000.49 1002.11 1003.88 1004.89 1005.88 1007.02 1008.22 1009.06 1009.78 1010.22 1010.61 1011.17 1011.80 1012.43 1012.97 1013.75 1014.33 1014.67 1014.92 1015.39 1016.12 1016.36 1016.76 1017.24 1017.53 1017.92 1018.22 1018.52 1018.76
1000.30 999.46 998.53 997.81 997.56 997.27 996.57 995.42 995.17 995.05 994.60 994.54 994.57 994.86 995.06 995.08 995.30 995.56 996.41 997.94 999.48 1000.89 1003.09 1004.14 1005.07 1005.95 1007.35 1008.32 1009.32 1010.05 1010.47 1010.96 1011.68 1012.19 1012.90 1013.49 1014.10 1014.38 1014.63 1015.23 1015.98 1016.18 1016.53 1017.11 1017.50 1017.94 1018.49 1018.72 1018.77
999.63 999.30 999.36 998.50 997.91 997.31 996.92 995.21 995.24 994.78 994.48 994.43 994.14 994.13 994.41 994.66 994.96 995.26 995.99 997.00 998.54 1000.08 1001.49 1003.31 1004.37 1005.28 1006.35 1007.73 1009.00 1009.76 1010.36 1010.94 1011.55 1012.05 1012.74 1013.34 1013.92 1014.33 1014.55 1014.91 1015.56 1015.98 1016.39 1017.08 1017.54 1017.87 1018.18 1018.80 1019.00
999.09 1000.01 999.47 999.12 998.92 997.76 998.24 995.54 995.14 995.31 994.00 993.58 992.88 993.76 993.98 994.65 995.20 995.28 995.44 996.35 997.64 998.92 1000.62 1002.35 1003.87 1005.04 1006.10 1007.09 1008.01 1009.06 1009.62 1010.15 1010.91 1011.75 1012.49 1013.09 1013.58 1014.15 1014.34 1014.79 1015.25 1015.81 1016.28 1016.87 1017.39 1017.77 1018.01 1018.34 1019.01
999.31 1000.23 1000.46 1000.25 1000.20 1000.10 997.55 998.37 993.99 995.97 994.97 994.10 994.04 995.25 996.44 997.00 997.18 997.19 997.09 997.21 997.26 998.27 999.71 1001.55 1003.30 1004.56 1005.64 1006.52 1007.19 1008.37 1009.35 1009.87 1010.47 1011.28 1012.17 1012.93 1013.46 1013.96 1014.25 1014.70 1015.17 1015.68 1016.08 1016.61 1017.16 1017.62 1017.88 1018.11 1018.59
1001.18 1001.39 1001.77 1001.33 1001.24 1001.70 998.13 999.54 996.20 996.89 996.21 995.46 996.56 997.70 998.60 998.99 998.69 998.15 997.92 997.44 997.90 999.07 1000.18 1001.29 1002.64 1004.19 1005.12 1006.00 1006.96 1007.76 1008.71 1009.56 1010.20 1010.89 1011.67 1012.36 1013.05 1013.75 1014.22 1014.56 1015.08 1015.47 1015.93 1016.36 1017.03 1017.67 1017.99 1018.14 1018.26
1001.72 1002.64 1003.02 1002.28 1001.66 1000.35 1000.30 999.65 998.74 998.66 997.57 998.42 999.18 1000.06 1000.70 1000.63 1000.29 999.53 999.05 999.30 999.97 999.94 1000.47 1001.92 1003.06 1004.01 1004.90 1005.70 1006.84 1007.72 1008.33 1009.19 1009.74 1010.28 1011.02 1011.95 1012.74 1013.17 1013.84 1014.25 1015.23 1015.36 1016.00 1016.45 1016.86 1017.54 1017.93 1018.24 1018.61
1003.28 1003.69 1004.52 1003.50 1002.64 1002.33 1001.99 1001.10 1000.86 1000.81 1000.89 1001.61 1001.64 1001.56 1001.58 1001.46 1001.42 1000.84 1000.66 1000.97 1000.91 1001.21 1001.30 1001.71 1002.94 1004.05 1005.00 1005.75 1006.52 1007.42 1008.12 1008.88 1009.41 1009.82 1010.62 1011.51 1012.27 1013.19 1013.60 1014.60 1015.42 1015.44 1016.01 1016.65 1017.08 1017.44 1017.98 1018.37 1018.70
1004.92 1005.15 1006.01 1006.09 1005.24 1004.52 1002.97 1001.46 1002.16 1003.02 1004.41 1005.22 1005.12 1003.56 1003.19 1002.32 1002.02 1001.66 1001.76 1002.10 1002.08 1002.09 1002.31 1002.39 1002.97 1003.72 1004.68 1005.72 1006.52 1007.24 1007.87 1008.56 1009.07 1009.49 1010.15 1011.07 1011.94 1012.83 1013.72 1014.20 1015.00 1015.82 1016.47 1016.87 1017.47 1017.70 1018.06 1018.57 1018.98
1007.30 1007.95 1007.20 1007.39 1006.76 1004.95 1003.49 1002.74 1004.25 1005.71 1006.97 1007.74 1006.74 1005.40 1005.78 1003.85 1003.41 1002.91 1002.25 1002.50 1002.92 1002.94 1003.13 1003.20 1003.42 1003.61 1004.24 1005.07 1005.79 1006.56 1007.38 1008.02 1008.56 1009.28 1009.92 1010.67 1011.68 1012.64 1013.61 1014.54 1014.91 1015.96 1016.90 1017.25 1017.76 1018.04 1018.48 1018.83 1019.46
1007.63 1007.94 1009.13 1010.06 1009.25 1007.88 1006.25 1005.50 1007.20 1007.68 1008.04 1008.26 1008.21 1007.11 1007.11 1005.83 1004.54 1003.76 1002.85 1002.49 1003.07 1003.58 1003.91 1004.14 1004.11 1004.28 1004.36 1004.90 1005.61 1006.13 1006.70 1007.30 1008.03 1008.75 1009.42 1010.32 1011.21 1012.12 1013.22 1014.22 1014.94 1015.63 1016.75 1017.40 1017.99 1018.24 1018.62 1018.98 1019.62
1006.97 1007.43 1008.78 1010.04 1009.99 1009.54 1008.58 1006.58 1006.48 1007.24 1007.65 1008.09 1008.47 1008.32 1007.28 1006.38 1005.61 1004.88 1003.58 1002.87 1002.94 1003.34 1003.92 1004.28 1004.57 1004.69 1004.87 1004.87 1004.96 1005.59 1006.21 1006.73 1007.30 1007.97 1008.62 1009.51 1010.52 1011.69 1012.81 1013.92 1014.92 1015.55 1016.07 1017.22 1017.77 1018.16 1018.74 1019.01 1019.69
Wind_Speed
9 12 9 9 7 8 16 22 22 12 8 14 17 10 13 16 8 11 19 15 25 20 18 19 19 19 16 16 15 15 14 12 12 11 10 10 9 10 10 8 8 9 11 12 11 10 8 8 8
9 16 10 9 9 12 15 19 2 4 10 10 9 10 11 10 10 16 12 25 23 20 16 17 17 18 17 16 16 15 14 12 11 12 11 10 10 10 12 10 10 11 11 11 10 12 9 10 10
10 15 7 7 13 15 17 19 3 11 11 8 6 4 10 8 12 11 9 24 23 19 16 16 17 18 17 15 15 15 14 12 11 12 13 11 10 11 12 12 12 12 11 11 11 10 11 11 10
6 7 7 9 17 20 22 19 8 2 4 1 10 2 10 6 12 9 15 19 21 19 17 19 17 17 16 15 15 15 14 12 12 12 13 13 13 13 13 13 12 13 13 12 12 11 11 10 9
9 6 9 14 18 21 21 15 7 11 8 8 8 8 8 11 15 15 17 16 19 18 19 17 16 17 16 15 15 16 15 13 12 15 13 15 15 12 13 13 12 12 13 11 11 11 11 10 9
8 9 12 13 19 18 17 6 5 8 11 15 8 12 7 11 15 14 15 14 15 18 17 17 16 15 16 15 14 13 13 13 16 18 16 14 13 14 13 13 12 12 11 11 10 10 10 9 9
12 11 15 20 18 21 21 16 3 5 14 12 4 4 9 11 14 14 13 10 17 17 15 14 14 14 13 13 13 13 15 17 17 17 18 14 14 14 14 13 12 11 10 10 10 9 9 8 7
12 12 20 17 15 18 17 4 5 0 13 14 4 5 7 13 14 16 13 14 10 13 14 14 11 10 10 10 14 14 16 17 18 18 17 15 15 14 14 14 11 11 10 10 10 8 7 7 6
19 12 15 20 19 20 14 4 1 5 7 9 3 7 11 19 16 17 14 13 12 9 13 13 11 11 10 10 11 14 16 17 18 17 18 14 8 9 10 11 11 10 9 8 8 7 6 4 4
14 13 21 20 20 17 18 16 13 11 11 11 9 17 18 18 16 17 16 14 13 11 12 13 13 12 12 9 10 10 11 9 9 10 11 9 8 8 10 10 9 10 9 8 7 7 7 5 3
18 17 20 20 20 18 17 19 17 16 16 14 9 16 24 18 17 16 16 16 15 13 9 13 13 13 12 10 8 6 6 7 7 10 10 6 7 6 6 4 5 4 8 5 5 5 2 6 5
22 21 21 19 20 21 17 19 18 18 19 17 11 1 19 19 18 18 18 16 16 15 13 12 14 14 13 10 9 9 8 8 8 9 9 6 5 5 7 6 7 6 5 4 4 4 4 4 4
22 23 20 20 22 23 21 20 21 21 19 18 17 8 21 18 18 16 14 16 16 15 15 14 14 14 12 14 11 10 9 9 8 8 6 6 5 5 5 5 5 4 5 3 4 5 5 4 4
21 23 25 23 24 24 25 24 21 20 19 19 19 19 12 22 19 16 18 16 18 18 17 17 15 15 11 12 13 9 7 7 7 7 6 8 5 5 4 5 4 4 4 4 4 5 4 5 5
20 24 20 21 22 25 25 26 27 23 23 22 21 20 19 14 22 21 19 19 20 17 17 17 16 15 12 11 9 7 5 7 6 7 8 7 6 6 6 5 5 4 4 6 5 1 4 4 5
24 26 23 22 25 24 25 24 23 20 17 21 23 20 19 16 17 18 21 21 20 19 20 17 15 17 15 12 9 8 7 6 6 6 6 7 7 7 6 5 4 6 5 5 5 4 4 5 5
18 21 26 27 25 26 24 25 18 17 18 12 12 13 16 16 18 18 20 19 20 22 22 21 19 17 16 13 9 8 8 7 6 7 6 7 7 7 5 5 4 6 4 4 4 2 4 3 4
18 21 22 21 20 20 19 20 22 11 16 16 13 15 16 14 15 19 19 21 20 17 22 21 17 17 15 9 9 6 7 6 7 8 7 8 5 7 5 5 6 5 5 4 3 3 2 4 5
24 25 26 23 23 26 22 23 20 19 16 15 14 13 16 17 17 17 17 19 18 16 23 23 21 18 14 10 11 9 10 8 8 7 10 10 7 7 6 5 6 5 5 4 5 3 3 1 3
25 27 26 25 23 21 21 26 23 21 20 19 16 17 20 17 16 13 19 20 20 17 22 22 21 21 16 11 10 8 9 7 7 7 10 10 9 7 6 7 6 6 5 7 5 5 3 2 3
26 23 23 27 23 24 20 29 20 25 21 20 21 19 18 15 16 14 16 20 21 18 22 22 21 20 18 16 10 8 7 6 7 7 9 9 9 7 6 7 6 5 6 5 4 4 6 4 1
25 16 22 24 21 17 17 21 21 21 21 18 21 18 21 13 9 10 5 22 22 20 19 20 19 19 16 17 14 14 11 10 8 8 8 8 10 9 6 7 6 6 5 6 5 3 3 5 4
25 11 16 22 20 22 27 12 26 16 20 20 13 16 15 14 12 12 13 8 19 18 19 20 19 18 17 16 13 12 11 8 6 8 11 9 8 9 7 7 7 6 5 6 6 4 2 2 4
11 12 15 15 12 9 31 13 24 14 14 12 14 15 13 14 13 12 12 15 17 12 12 16 19 16 17 16 10 13 14 11 9 11 10 10 9 8 8 8 6 6 6 7 6 4 3 1 3
14 11 5 7 11 11 17 16 15 18 9 17 16 13 12 13 14 15 17 13 11 6 15 13 15 15 14 15 10 7 10 12 12 13 11 11 9 9 10 10 7 6 6 6 6 6 5 4 4
14 11 8 7 7 3 7 7 2 14 16 13 12 10 11 11 10 13 15 14 9 9 2 13 14 13 12 14 14 8 10 7 5 10 10 9 9 9 10 8 7 7 8 6 6 5 5 5 5
8 11 11 7 11 6 9 15 10 11 22 18 15 17 19 14 11 10 10 10 11 9 6 3 12 13 14 14 13 13 8 14 10 11 11 10 10 9 12 11 9 7 6 6 6 4 6 5 5
6 9 7 3 6 13 13 17 4 11 11 11 13 13 19 20 16 13 6 6 7 8 8 7 5 2 9 16 16 14 12 11 8 7 10 11 9 10 13 10 9 9 7 6 5 5 5 6 4
4 2 1 4 3 6 10 0 6 9 10 10 15 19 21 20 16 17 13 3 4 3 4 6 6 5 5 9 14 14 14 12 11 9 11 11 12 13 14 12 12 13 11 7 7 7 6 7 6
14 9 5 4 3 3 4 5 14 14 10 5 6 12 17 15 15 14 17 13 4 5 2 2 3 4 6 4 8 14 14 13 12 11 14 13 13 15 15 13 13 13 14 11 9 10 7 9 7
Wind_Direction
276 248 233 249 247 230 254 246 237 248 332 8 26 6 355 44 8 100 136 129 117 131 139 144 141 140 144 141 138 134 131 131 128 124 113 104 100 106 106 105 119 111 110 107 104 97 88 82 68
282 271 230 276 242 260 257 260 236 38 65 5 10 341 322 80 72 118 118 117 122 130 143 146 144 142 146 145 141 138 139 138 134 129 117 107 101 97 101 95 98 103 99 96 95 86 82 68 57
258 267 266 233 243 249 273 303 340 41 33 350 309 45 330 81 119 120 137 122 129 133 153 144 146 143 148 148 144 143 144 144 147 139 128 125 115 104 100 95 92 93 100 93 88 88 76 67 54
253 230 240 263 265 276 288 296 55 8 300 311 276 211 85 64 138 118 142 134 133 143 149 141 145 146 151 152 151 149 150 159 164 140 137 132 117 110 103 93 96 98 95 96 92 88 80 68 55
247 275 266 267 279 273 272 292 352 319 313 257 216 239 103 88 104 143 144 150 140 156 129 147 145 149 155 159 160 160 157 164 156 134 126 118 115 115 106 101 100 100 102 100 98 93 84 68 52
265 248 264 268 269 285 306 18 313 307 299 284 202 249 92 127 130 149 155 155 149 124 137 145 150 157 160 167 166 152 148 136 123 118 114 115 125 118 112 109 107 105 103 102 95 90 82 74 58
256 277 275 276 292 295 297 322 125 290 289 259 172 275 116 154 144 149 154 117 109 126 137 143 159 160 132 125 125 123 120 122 123 122 117 125 123 119 118 114 114 114 111 108 102 95 91 84 68
250 267 276 272 274 285 293 314 12 336 284 23 95 222 164 161 154 155 108 104 116 129 139 146 150 142 134 131 126 126 127 128 127 120 123 129 124 123 126 122 120 120 118 112 107 102 98 95 86
263 269 268 272 276 280 322 2 2 277 298 301 183 268 98 144 168 127 137 136 139 142 151 148 150 144 137 128 131 125 129 128 125 127 135 142 140 146 136 110 128 124 120 121 121 123 122 120 121
244 247 263 275 288 325 333 311 313 276 230 227 251 112 132 154 172 156 162 163 154 158 163 155 154 153 142 143 144 142 142 146 146 154 166 182 157 149 125 127 132 131 135 140 154 176 182 212 216
271 258 269 270 288 311 301 303 304 292 260 262 243 196 154 163 177 179 186 178 168 159 161 166 155 150 153 148 159 159 166 167 157 163 189 188 118 118 128 143 148 155 171 186 185 192 207 28 26
282 274 260 276 284 297 287 286 280 266 276 286 296 44 146 172 183 194 181 179 172 167 168 168 160 160 171 155 173 170 179 178 162 169 198 124 137 161 158 175 185 184 167 172 155 79 105 83 57
271 273 280 282 280 275 277 270 270 268 275 285 288 266 159 182 189 193 203 173 170 174 174 177 168 170 184 166 173 179 188 176 169 166 156 143 167 180 167 141 154 183 130 153 110 142 140 109 94
287 289 286 282 283 287 282 275 266 256 255 257 265 269 190 181 191 191 198 178 184 180 182 179 179 177 185 174 176 181 178 162 161 158 167 171 157 155 144 138 136 122 158 144 139 151 152 120 115
280 273 277 274 272 270 272 264 255 251 247 251 252 245 236 198 185 189 200 193 188 179 177 185 178 180 182 184 174 170 165 163 159 162 165 177 138 159 143 165 150 150 93 91 87 91 114 142 132
276 273 274 270 272 266 253 258 259 268 258 245 235 233 245 197 210 194 192 194 185 177 177 182 185 181 180 184 177 178 168 158 164 156 155 162 142 165 155 149 155 124 134 170 163 181 176 155 153
252 264 267 277 271 268 265 280 267 255 253 279 287 269 228 222 201 197 190 180 194 182 176 183 185 182 182 183 174 178 158 164 162 144 156 158 155 161 160 155 131 142 167 153 167 160 147 148 140
255 258 264 264 262 273 255 266 279 259 270 266 244 264 278 272 230 192 190 180 184 180 174 176 178 175 177 173 172 183 156 176 155 159 161 160 164 167 168 136 135 182 155 153 155 150 151 165 160
260 265 268 272 281 293 294 289 280 287 258 235 269 250 242 243 262 195 183 170 175 177 174 176 172 170 173 174 182 181 173 177 164 164 154 160 167 179 166 131 151 194 151 168 137 121 135 101 124
269 270 272 280 285 277 285 279 277 270 272 276 260 251 258 246 241 246 176 162 175 181 171 175 179 167 176 175 184 182 175 177 167 161 151 166 168 172 168 148 175 184 139 135 151 157 161 141 178
259 259 275 276 279 275 282 277 275 274 265 259 257 256 250 249 255 234 182 170 170 185 172 175 180 174 173 171 180 173 175 159 168 163 158 173 167 171 176 152 166 165 127 145 173 180 145 143 257
271 273 279 287 285 278 273 279 276 291 286 276 239 276 228 253 314 299 235 177 173 180 168 172 178 173 177 176 180 186 190 180 176 164 164 168 168 176 172 162 148 147 146 153 164 185 184 140 158
272 325 307 292 294 315 269 262 280 277 283 273 262 46 41 31 25 4 4 217 183 173 167 170 175 173 177 186 184 183 197 177 167 159 165 166 168 175 165 159 148 156 140 138 149 133 161 171 150
304 319 320 288 265 256 264 257 273 275 331 276 72 61 41 30 20 22 13 2 170 163 142 164 164 176 179 184 182 185 186 175 171 171 173 170 171 172 171 161 160 156 142 132 127 144 159 140 73
242 275 302 251 228 239 258 257 241 343 56 55 71 61 39 29 17 18 22 26 7 153 141 159 172 182 175 177 173 166 166 179 185 182 172 173 178 176 177 165 173 155 133 134 133 149 125 117 113
309 255 245 271 256 324 323 264 53 11 52 61 72 62 51 41 33 27 16 10 26 19 175 155 171 180 179 180 187 166 173 190 198 176 172 179 176 176 161 166 170 139 137 140 148 130 139 121 109
345 271 329 302 249 258 246 255 171 81 29 22 15 359 2 11 19 38 35 11 3 17 12 347 172 178 177 186 186 192 174 186 195 183 176 181 169 170 164 160 155 145 142 135 133 126 121 114 110
303 2 297 223 269 255 255 263 75 78 67 24 9 13 342 351 356 356 37 59 14 4 358 1 334 238 183 180 186 190 182 187 185 180 168 167 155 158 159 161 146 133 122 135 128 120 109 115 110
192 189 69 276 284 294 284 293 122 88 68 32 347 347 348 341 336 341 346 63 92 29 346 337 341 314 261 176 188 189 190 185 192 173 165 170 164 152 158 156 149 143 145 147 145 132 138 128 119
253 274 188 243 188 262 302 286 162 146 123 43 310 306 300 300 312 328 334 327 167 173 191 235 260 286 298 291 200 189 186 186 182 168 170 159 155 155 159 156 155 154 156 161 154 150 145 137 132